Tracking 18840 objects as of 19-November-2017
HD Live streaming from Space Station
objects crossing your sky now

USA 67

Track USA 67 now!
USA 67 is classified as:


NORAD ID: 20963
Int'l Code: 1990-097B
Perigee: 36,199.3 km
Apogee: 36,350.1 km
Inclination: 16.6 °
Period: 1,460.7 minutes
Semi major axis: 42645 km
RCS: Unknown
Launch date: November 15, 1990
Source: United States (US)
Launch site: AIR FORCE EASTERN TEST RANGE (AFETR)

$1 billion satellite; resolution of 5-6 inches.
aabbcc
Your satellite tracking list
Your tracking list is empty




NASA's NSSDC Master Catalog

Two Line Element Set (TLE):
1 20963U 90097B   17287.08923676 0.00000000  00000-0  00000-0 0    04
2 20963  16.6202   2.8301 0017691 214.9534 144.9424  0.98580288    01
Source of the keplerian elements: McCants